[[{"header":{"parameterUnit":"m.s-1","parameterCategory":1,"la1":30.2991,"la2":30.254,"lo1":-89.0895,"lo2":-89.0444,"dy":0.0017,"dx":0.0017,"nx":28,"ny":28,"refTime":"2024-08-20T09:00:00:Z","depth":0,"parameterNumber":2,"parameterNumberName":"U-component_of_WINDS"},"data":[0,0,0,0,0,0,0,0,0,0,0,0,0,0,0,0,0,0,0,0,0,0,0,0,0,0,0,0,0,0,0,0,0,0,0,0,0,0,0,0,0,0,0,0,0,0,0,0,0,0,0,0,0,0,0,0,0,0,0.0767,0.0769,0,0.0976,0.0978,0.0981,0.1069,0.1069,0.1068,0.1068,0.1288,0.1294,0.13,0,0,0,0,0,0,0,0,0,0,0,0,0,0.0449,0.0454,0.0767,0.0769,0.0772,0.0976,0.0978,0.0981,0.1069,0.1069,0.1068,0.1068,0.1286,0.1293,0.13,0,0,0,0,0,0,0,0,0,0,0,0,0,0.0615,0.0456,0.0766,0.084,0.0849,0.0975,0.0979,0.0982,0.1069,0.1069,0.1068,0.1068,0.1283,0.1292,0.1301,0.1371,0,0,0.133,0.1334,0,0,0,0,0,0,0,0,0.0606,0.0627,0.0827,0.0836,0.0845,0.0996,0.0947,0.1113,0.107,0.0986,0.1068,0.1067,0.1191,0.1208,0.1249,0.1381,0.1391,0.1331,0.1336,0.134,0.1343,0,0,0,0,0,0,0,0.0594,0.0619,0.085,0.083,0.0841,0.0865,0.0888,0.0979,0.109,0.0993,0.1,0.1023,0.1196,0.124,0.1255,0.1394,0.1331,0.1339,0.1345,0.1348,0.1595,0.1596,0,0,0,0,0,0,0.057,0.0608,0.0843,0.0856,0.0722,0.0871,0.0897,0.0948,0.1089,0.111,0.1024,0.1027,0.1224,0.1244,0.1263,0.1354,0.134,0.1349,0.1355,0.1594,0.1595,0.1596,0,0,0,0,0,0,0.0563,0.059,0.0835,0.0734,0.0767,0.0877,0.0934,0.0953,0.0996,0.1112,0.1133,0.1047,0.1224,0.125,0.1343,0.1363,0.1353,0.1362,0.1593,0.1595,0.1596,0.1537,0,0,0,0,0,0,0.0553,0.0587,0.0613,0.0734,0.0772,0.091,0.0936,0.0957,0.1011,0.1017,0.1139,0.1159,0.1226,0.1329,0.1353,0.1376,0.1369,0.1592,0.1594,0.1595,0.1537,0.1536,0.1535,0,0,0,0,0,0.0542,0.0589,0.0614,0.0642,0.0807,0.0911,0.0933,0.1007,0.1012,0.1041,0.1115,0.1155,0.1357,0.1338,0.1365,0.1391,0.1591,0.1593,0.1595,0.1538,0.1536,0.1535,0,0,0,0,0,0,0.047,0.0607,0.0636,0.0724,0.0804,0.0925,0.0963,0.1003,0.1085,0.1088,0.1178,0.1205,0.1291,0.1351,0.1327,0.1467,0.1477,0.1485,0.1424,0.1424,0.1422,0.1406,0.1377,0,0,0,0,0,0.0464,0.0535,0.0651,0.0718,0.0757,0.0853,0.0901,0.0951,0.1039,0.1075,0.1156,0.1242,0.1325,0.1377,0.146,0.1546,0.1575,0.1578,0.1576,0.1575,0.1581,0.1632,0.1634,0.1603,0.1603,0.1603,0,0,0.0453,0.0537,0.0577,0.0706,0.0774,0.0848,0.0881,0.0957,0.1013,0.1087,0.118,0.1242,0.1344,0.1434,0.1478,0.1487,0.1595,0.1577,0.1575,0.1583,0.1634,0.1637,0.1639,0.1605,0.1605,0.1604,0,0,0.0471,0.0541,0.0604,0.0672,0.0775,0.0838,0.0853,0.0968,0.1012,0.1106,0.1163,0.1231,0.1372,0.1442,0.1496,0.154,0.1581,0.1565,0.1558,0.1606,0.1609,0.1611,0.1628,0.1632,0.157,0.157,0.157,0,0.0445,0.0556,0.0632,0.0705,0.076,0.0828,0.0894,0.0957,0.1082,0.1119,0.1127,0.1304,0.1378,0.1485,0.1496,0.1537,0.1558,0.1551,0.1602,0.1605,0.1609,0.1626,0.1631,0.1567,0.1568,0.1568,0.1568,0,0.052,0.0596,0.0635,0.0752,0.0812,0.088,0.0968,0.102,0.1065,0.1128,0.1223,0.1313,0.1416,0.1445,0.149,0.1559,0.1561,0.1584,0.1597,0.1608,0.1625,0.1632,0.1564,0.1564,0.1565,0.1566,0,0,0.0499,0.0656,0.067,0.0724,0.0842,0.0903,0.0975,0.1073,0.1116,0.1201,0.1264,0.1381,0.1403,0.1464,0.1518,0.156,0.1589,0.1578,0.1582,0.1577,0.1673,0.1655,0.1661,0.1616,0.1618,0.1619,0.1664,0,0.0534,0.0664,0.0734,0.0836,0.0908,0.0973,0.1036,0.1116,0.1177,0.1248,0.1316,0.1398,0.1419,0.1457,0.1502,0.1576,0.161,0.1574,0.1679,0.1681,0.1651,0.167,0.1652,0.169,0.1671,0.1672,0.1673,0,0.0592,0.0672,0.078,0.089,0.0923,0.0978,0.1074,0.114,0.1233,0.1274,0.1342,0.1395,0.1475,0.1481,0.1594,0.1567,0.1614,0.1657,0.1661,0.1674,0.1678,0.1685,0.1704,0.171,0.1685,0.1684,0.1683,0,0.0566,0.0703,0.0785,0.0829,0.0959,0.0996,0.1053,0.1145,0.1199,0.1283,0.132,0.1412,0.1463,0.1535,0.1612,0.1609,0.1717,0.1729,0.1755,0.1753,0.1776,0.1774,0.1804,0.1805,0.1805,0.1804,0.1804,0,0.0598,0.0662,0.0775,0.0826,0.09,0.098,0.1051,0.1113,0.1194,0.1259,0.1322,0.1382,0.148,0.1553,0.1614,0.1698,0.1721,0.1758,0.1773,0.1752,0.1748,0.1785,0.1785,0.1806,0.1806,0.1805,0.1805,0,0.0583,0.0661,0.0755,0.087,0.09,0.0949,0.1049,0.1101,0.1165,0.1246,0.127,0.1371,0.1459,0.1543,0.1662,0.1703,0.1788,0.1808,0.1756,0.1765,0.1786,0.1783,0.1842,0.1855,0.1846,0.1845,0.1845,0,0.0598,0.0648,0.0768,0.0815,0.0869,0.0944,0.1,0.1081,0.1136,0.1245,0.1285,0.1378,0.1457,0.1596,0.1681,0.1772,0.1795,0.181,0.181,0.1787,0.1797,0.1793,0.1799,0.1808,0.1808,0.1808,0.1807,0,0.0617,0.0653,0.0729,0.0819,0.0882,0.0958,0.1035,0.107,0.1167,0.1226,0.1317,0.1377,0.1498,0.159,0.1691,0.1752,0.1796,0.1806,0.1818,0.1797,0.1765,0.1783,0.1753,0.1805,0.1805,0.1806,0.1806,0.1806,0.0618,0.0666,0.0757,0.084,0.0906,0.0977,0.1032,0.1101,0.1177,0.128,0.1325,0.1416,0.1509,0.1649,0.1708,0.1782,0.1793,0.1808,0.1813,0.1815,0.1811,0.1752,0.1801,0.1801,0.1802,0.1802,0.1802,0,0.0641,0.0702,0.0778,0.0883,0.0948,0.0982,0.107,0.1123,0.1202,0.1283,0.1359,0.1463,0.1552,0.1643,0.1738,0.178,0.1803,0.1802,0.1801,0.1814,0.1797,0.1778,0.1782,0.1782,0.1782,0.1782,0.1782,0.1782,0.066,0.0743,0.079,0.0906,0.0968,0.1057,0.1104,0.117,0.1235,0.1348,0.1421,0.1479,0.1566,0.1667,0.1751,0.1776,0.1808,0.1802,0.1832,0.1814,0.1815,0.1816,0.1799,0.1808,0.1808,0.1844,0.1844,0.1844]},{"header":{"parameterUnit":"m.s-1","parameterCategory":1,"la1":30.2991,"la2":30.254,"lo1":-89.0895,"lo2":-89.0444,"dy":0.0017,"dx":0.0017,"nx":28,"ny":28,"refTime":"2024-08-20T09:00:00:Z","depth":0,"parameterNumber":3,"parameterNumberName":"V-component_of_WINDS"},"data":[0,0,0,0,0,0,0,0,0,0,0,0,0,0,0,0,0,0,0,0,0,0,0,0,0,0,0,0,0,0,0,0,0,0,0,0,0,0,0,0,0,0,0,0,0,0,0,0,0,0,0,0,0,0,0,0,0,0,-0.2145,-0.2146,0,-0.2256,-0.2257,-0.2258,-0.2298,-0.2298,-0.2298,-0.2297,-0.2411,-0.2414,-0.2418,0,0,0,0,0,0,0,0,0,0,0,0,0,-0.1969,-0.1972,-0.2145,-0.2146,-0.2148,-0.2256,-0.2257,-0.2259,-0.2298,-0.2298,-0.2297,-0.2297,-0.241,-0.2414,-0.2418,0,0,0,0,0,0,0,0,0,0,0,0,0,-0.2059,-0.1973,-0.2145,-0.2181,-0.2185,-0.2255,-0.2257,-0.2259,-0.2298,-0.2298,-0.2297,-0.2297,-0.2409,-0.2413,-0.2418,-0.2461,0,0,-0.2434,-0.2436,0,0,0,0,0,0,0,0,-0.2054,-0.2066,-0.2174,-0.2178,-0.2183,-0.2263,-0.2237,-0.2327,-0.2299,-0.2255,-0.2297,-0.2297,-0.2362,-0.2371,-0.2393,-0.2467,-0.2472,-0.2434,-0.2438,-0.244,-0.2441,0,0,0,0,0,0,0,-0.2048,-0.2061,-0.2189,-0.2176,-0.2181,-0.2191,-0.2204,-0.2254,-0.2311,-0.2259,-0.2262,-0.2275,-0.2365,-0.2388,-0.2396,-0.2473,-0.2434,-0.2439,-0.2442,-0.2444,-0.2588,-0.2589,0,0,0,0,0,0,-0.2035,-0.2056,-0.2185,-0.2192,-0.2116,-0.2195,-0.2209,-0.2238,-0.231,-0.2321,-0.2275,-0.2276,-0.238,-0.239,-0.24,-0.2456,-0.244,-0.2444,-0.2447,-0.2587,-0.2588,-0.2589,0,0,0,0,0,0,-0.2031,-0.2047,-0.2181,-0.2125,-0.2143,-0.2199,-0.2231,-0.224,-0.2264,-0.2322,-0.2333,-0.2289,-0.238,-0.2393,-0.2446,-0.246,-0.2447,-0.2451,-0.2586,-0.2588,-0.2589,-0.2566,0,0,0,0,0,0,-0.2026,-0.2045,-0.2062,-0.2125,-0.2145,-0.2225,-0.2232,-0.2243,-0.2272,-0.2275,-0.2338,-0.2348,-0.238,-0.2438,-0.2451,-0.2467,-0.2455,-0.2585,-0.2587,-0.2588,-0.2566,-0.2566,-0.2567,0,0,0,0,0,-0.202,-0.2051,-0.2062,-0.2078,-0.2168,-0.2225,-0.2237,-0.2274,-0.2273,-0.2291,-0.2328,-0.2346,-0.2456,-0.2443,-0.2458,-0.2475,-0.2585,-0.2586,-0.2588,-0.2566,-0.2566,-0.2567,0,0,0,0,0,0,-0.1988,-0.206,-0.2073,-0.2126,-0.2169,-0.2232,-0.2255,-0.2273,-0.2318,-0.2318,-0.2362,-0.2376,-0.2425,-0.2456,-0.244,-0.2521,-0.2522,-0.2526,-0.2499,-0.25,-0.2501,-0.2493,-0.246,0,0,0,0,0,-0.1987,-0.2028,-0.2088,-0.2129,-0.215,-0.2198,-0.2225,-0.2249,-0.2296,-0.2315,-0.2356,-0.2401,-0.2446,-0.2475,-0.2519,-0.257,-0.2585,-0.259,-0.259,-0.259,-0.2594,-0.2623,-0.2626,-0.2595,-0.2595,-0.2595,0,0,-0.1986,-0.203,-0.2053,-0.2124,-0.216,-0.2201,-0.2214,-0.2257,-0.2288,-0.2322,-0.2374,-0.2406,-0.2459,-0.2511,-0.2536,-0.2538,-0.2606,-0.2592,-0.2592,-0.2596,-0.2626,-0.2628,-0.2631,-0.2596,-0.2596,-0.2596,0,0,-0.2004,-0.2041,-0.208,-0.2116,-0.2171,-0.2203,-0.2212,-0.2272,-0.2295,-0.2348,-0.2374,-0.2412,-0.2488,-0.2525,-0.2554,-0.2586,-0.2604,-0.26,-0.2602,-0.263,-0.2633,-0.2635,-0.2647,-0.2651,-0.2603,-0.2603,-0.2603,0,-0.1996,-0.2059,-0.2097,-0.2139,-0.2169,-0.2201,-0.224,-0.2274,-0.234,-0.2361,-0.2362,-0.2458,-0.2496,-0.2558,-0.2565,-0.2587,-0.2599,-0.2593,-0.2629,-0.2632,-0.2635,-0.2647,-0.2651,-0.2602,-0.2602,-0.2602,-0.2602,0,-0.2046,-0.2089,-0.2113,-0.2177,-0.221,-0.225,-0.2295,-0.2324,-0.2345,-0.2377,-0.2431,-0.2478,-0.2532,-0.2549,-0.257,-0.2613,-0.2613,-0.2621,-0.2623,-0.2637,-0.2649,-0.2654,-0.2601,-0.2601,-0.2601,-0.2602,0,0,-0.2048,-0.2132,-0.214,-0.2169,-0.2232,-0.2267,-0.2309,-0.2362,-0.2386,-0.2431,-0.2468,-0.2531,-0.2539,-0.2572,-0.2598,-0.2622,-0.2646,-0.2628,-0.263,-0.263,-0.2697,-0.269,-0.2695,-0.2658,-0.2659,-0.2659,-0.2692,0,-0.2075,-0.2151,-0.2186,-0.2247,-0.2288,-0.2318,-0.2355,-0.2397,-0.2429,-0.2468,-0.2502,-0.2547,-0.2554,-0.2574,-0.26,-0.2637,-0.266,-0.2635,-0.2692,-0.2694,-0.2678,-0.2701,-0.2695,-0.2723,-0.2697,-0.2698,-0.2699,0,-0.2117,-0.2162,-0.2226,-0.2285,-0.2303,-0.2335,-0.2387,-0.2424,-0.2473,-0.2494,-0.253,-0.2555,-0.2601,-0.2598,-0.2662,-0.2644,-0.267,-0.2692,-0.2694,-0.2701,-0.2697,-0.2709,-0.2733,-0.2738,-0.2706,-0.2706,-0.2705,0,-0.2113,-0.2189,-0.2238,-0.2262,-0.2331,-0.2353,-0.2383,-0.2431,-0.2461,-0.2507,-0.2526,-0.2576,-0.2604,-0.2642,-0.268,-0.2674,-0.2739,-0.274,-0.2758,-0.2757,-0.2771,-0.277,-0.28,-0.2786,-0.2786,-0.2786,-0.2786,0,-0.214,-0.2178,-0.2237,-0.2267,-0.2311,-0.2351,-0.2393,-0.2425,-0.2468,-0.2505,-0.2535,-0.2568,-0.2616,-0.2656,-0.2686,-0.2734,-0.2746,-0.2764,-0.2772,-0.2762,-0.276,-0.278,-0.2779,-0.2787,-0.2787,-0.2787,-0.2787,0,-0.2143,-0.2183,-0.2239,-0.2299,-0.2316,-0.2345,-0.2398,-0.2428,-0.246,-0.2506,-0.252,-0.257,-0.2619,-0.266,-0.2724,-0.2744,-0.2794,-0.2803,-0.2778,-0.2782,-0.2798,-0.2796,-0.2842,-0.2851,-0.283,-0.283,-0.2831,0,-0.2158,-0.2188,-0.2252,-0.2279,-0.2308,-0.2351,-0.2382,-0.2422,-0.2453,-0.2511,-0.2534,-0.2585,-0.2628,-0.2704,-0.2747,-0.2796,-0.2807,-0.2819,-0.2814,-0.2803,-0.2807,-0.2805,-0.2809,-0.282,-0.282,-0.282,-0.282,0,-0.218,-0.2199,-0.2242,-0.2292,-0.2327,-0.2369,-0.2411,-0.2431,-0.248,-0.2513,-0.2563,-0.2596,-0.2661,-0.2711,-0.2765,-0.2796,-0.2816,-0.2821,-0.2828,-0.2819,-0.2803,-0.2812,-0.2779,-0.282,-0.282,-0.282,-0.282,-0.282,-0.219,-0.2218,-0.2268,-0.2315,-0.2351,-0.239,-0.2421,-0.2457,-0.25,-0.2556,-0.2577,-0.2629,-0.2677,-0.2751,-0.2783,-0.2823,-0.2826,-0.2836,-0.2839,-0.2841,-0.2839,-0.2796,-0.2833,-0.2833,-0.2833,-0.2833,-0.2833,0,-0.2214,-0.2248,-0.229,-0.2349,-0.2385,-0.2401,-0.2448,-0.2478,-0.2523,-0.2566,-0.2608,-0.2665,-0.2714,-0.276,-0.2812,-0.2835,-0.2846,-0.2847,-0.2846,-0.2853,-0.2834,-0.2823,-0.2838,-0.2838,-0.2838,-0.2838,-0.2838,-0.2838,-0.2231,-0.228,-0.2305,-0.2372,-0.2405,-0.2456,-0.2481,-0.2517,-0.2552,-0.2615,-0.2656,-0.2686,-0.2731,-0.2785,-0.2831,-0.2843,-0.2861,-0.286,-0.2875,-0.2856,-0.2855,-0.2854,-0.2844,-0.2863,-0.2863,-0.2891,-0.2892,-0.2892]}]]